{"data":{"norad_id":67066,"epoch":"2026-05-25T04:02:28.038912Z","epoch_age_seconds":61256,"freshness":"FRESH","line1":"1 67066U 25295H   26145.16838008 -.00000082  00000+0  91234-4 0  9993","line2":"2 67066  49.9979 107.7558 0000921 354.2909   5.7952 13.29327339 22443","mean_motion":13.29327339,"eccentricity":9.21e-5,"inclination_deg":49.9979,"raan_deg":107.7558,"arg_perigee_deg":354.2909,"mean_anomaly_deg":5.7952,"bstar":9.1234e-5,"rev_number":2244,"period_min":108.32546339439,"perigee_km":1148.6082399549,"apogee_km":1149.9947941297,"semimajor_km":7527.4385170423,"source":"CELESTRAK","updated_at":"2026-05-25T13:38:06.702594Z"}}